#timestamp,LO_Frequency,Hit,StdDev 
1627959615.5,286047000.7,N
1627959635.3,286047001.2,N
1627959655.2,286047000.9,N
1627959675.9,286047000.6,N
1627959695.7,286047000.6,N
1627959715.6,286047000.1,N
1627959735.4,286047000.1,N
1627959755.3,286047002.0,N
1627959775.1,286047002.0,N
1627959795.8,286047001.8,N
1627959815.7,286047002.6,N
1627959835.5,286047003.9,N
1627959855.3,286047001.7,N
1627959875.2,286047002.6,N
1627959895.0,286047002.8,N
1627959895.9,286047002.8,N
1627959915.8,286046999.9,N
1627959935.6,286047000.6,N
1627959955.4,286047002.6,N
1627959975.3,286047002.5,N
1627959995.1,286047002.4,N
1627960015.9,286047004.4,Y
1627960035.7,286047000.0,P
1627960055.5,286046999.7,N
1627960075.4,286047004.2,P
1627960095.2,286047004.3,N
1627960115.0,286047005.9,N
1627960115.9,286047005.9,N
1627960135.8,286047005.1,N
1627960155.6,286047006.5,N
1627960175.5,286047006.5,N
1627960195.3,286047008.8,Y
1627960215.1,286047004.2,P
1627960235.9,286047006.0,P
1627960255.7,286047005.7,P
1627960275.5,286047005.4,Y
1627960295.4,286047000.0,P
1627960315.2,286047001.9,N
1627960335.1,286047004.1,N
1627960336.0,286047004.1,N
1627960355.8,286047004.3,N
1627960375.6,286047001.6,N
1627960395.5,286047001.3,N
1627960415.3,286047001.3,N
1627960435.1,286047002.6,N
1627960455.9,286047002.6,N
1627960475.7,286047002.2,N
1627960495.6,286047002.3,N
1627960515.4,286047002.8,N
1627960535.2,286047002.2,N
1627960555.1,286047004.1,Y
1627960556.0,286047004.1,P
1627960575.8,286047000.3,N
1627960595.7,286047002.8,N
1627960615.5,286046999.9,N
1627960635.3,286047000.6,N
1627960655.2,286047000.5,N
1627960675.0,286047001.1,N
1627960675.9,286047001.1,N
1627960695.7,286047001.0,N
1627960715.6,286047000.7,N
1627960735.4,286046998.2,N
1627960755.3,286046998.6,N
1627960775.1,286046998.5,N
1627960776.0,286046998.5,N
1627960795.8,286046998.4,N
1627960815.7,286046999.4,N
1627960835.5,286046999.2,N
1627960855.3,286046999.3,N
1627960875.2,286046999.4,N
1627960895.0,286046996.6,N
1627960895.9,286046996.6,N
1627960915.8,286046999.2,N
1627960935.6,286046996.8,N
1627960955.4,286046999.1,N
1627960975.3,286046996.9,N
1627960995.1,286046999.2,N
1627961015.9,286046999.5,N
1627961035.7,286046997.1,N
1627961055.5,286046999.4,N
1627961075.4,286046998.7,N
1627961095.2,286046999.3,N
1627961115.0,286046998.3,N
1627961115.9,286046998.3,N
1627961135.8,286046998.1,N
1627961155.6,286047001.1,N
1627961175.5,286046998.1,N
1627961195.3,286046998.4,N
1627961215.1,286046998.4,N
1627961235.9,286046998.5,N
1627961255.7,286046997.7,N
1627961275.5,286046997.5,N
1627961295.4,286046995.8,Y
1627961315.2,286046995.2,P
1627961335.1,286046993.5,P
1627961336.0,286046993.5,P
1627961355.8,286046993.3,Y
1627961375.6,286046998.9,P
1627961395.5,286046999.1,N
1627961415.3,286046997.1,N
1627961435.2,286046996.7,N
1627961455.9,286046997.1,N
1627961475.7,286046997.3,N
1627961495.6,286046997.5,N
1627961515.4,286046995.7,Y
1627961535.2,286047000.9,P
1627961555.1,286047000.6,N
1627961556.0,286047000.6,N
1627961575.8,286047000.6,N
1627961595.7,286046998.7,N
1627961615.5,286046998.9,N
1627961635.3,286047001.1,N
1627961655.2,286047000.4,N
1627961675.0,286047000.2,N
1627961675.9,286047000.2,N
1627961695.7,286047000.8,N
1627961715.6,286047000.9,N
1627961735.4,286047000.7,N
1627961755.3,286046999.8,N
1627961775.1,286046998.5,N
1627961776.0,286046998.5,N
1627961795.8,286047001.0,N
1627961815.7,286046999.9,N
1627961835.5,286047000.9,N
1627961855.3,286046998.7,N
1627961875.2,286046998.7,N
1627961895.0,286046996.9,N
1627961895.9,286046996.9,N
1627961915.8,286046996.9,N
1627961935.6,286046997.0,N
1627961955.4,286046996.9,N
1627961975.3,286046996.5,N
1627961995.1,286046996.6,N
1627962015.8,286046997.1,N
1627962035.7,286046996.7,N
1627962055.5,286046997.7,N
1627962075.4,286046997.4,N
1627962095.2,286046999.5,N
1627962115.0,286046996.5,N
1627962115.9,286046996.5,N
1627962135.8,286046998.2,N
1627962155.6,286047001.1,N
1627962175.4,286047001.1,N
1627962195.3,286047000.9,N
1627962215.1,286046998.6,N
1627962235.9,286047000.2,N
1627962255.7,286047000.0,N
1627962275.5,286047001.9,N
1627962295.4,286047002.1,N
1627962315.2,286047002.3,N
1627962335.0,286046999.9,N
1627962335.9,286046999.9,N
1627962355.8,286047000.9,N
1627962375.6,286046998.2,N
1627962395.5,286047001.2,N
1627962415.3,286046999.4,N
1627962435.1,286047000.3,N
1627962455.9,286047000.5,N
1627962475.7,286047000.4,N
1627962495.5,286046999.0,N
1627962515.4,286047001.2,N
1627962535.2,286047002.4,N
1627962555.1,286047001.5,N
1627962556.0,286047001.5,N
1627962575.8,286047001.7,N
1627962595.6,286047003.5,N
1627962615.5,286047003.4,N
1627962635.3,286047004.4,N
1627962655.1,286047003.9,N
1627962675.9,286047003.1,N
1627962695.7,286047001.9,N
1627962715.6,286047002.5,N
1627962735.4,286047002.7,N
1627962755.2,286047004.3,N
1627962775.1,286047002.6,N
1627962776.0,286047002.6,N
1627962795.8,286047001.5,N
1627962815.6,286047001.8,N
1627962835.5,286047002.1,N
1627962855.3,286047002.6,N
1627962875.2,286047000.4,N
1627962895.9,286047002.8,N
1627962915.7,286047000.0,N
1627962935.6,286047000.2,N
1627962955.4,286047002.2,N
1627962975.2,286047002.2,N
1627962995.1,286047002.1,N
1627962996.0,286047002.1,N
1627963015.8,286047001.5,N
1627963035.7,286047003.6,N
1627963055.5,286047003.5,Y
1627963075.3,286046999.8,P
1627963095.2,286047000.4,N
1627963115.0,286046998.2,N
1627963115.9,286046998.2,N
1627963135.8,286046998.8,N
1627963155.6,286046998.7,N
1627963175.4,286046999.5,N
1627963195.3,286046998.1,N
